TimeAKST,TemperatureF,Dew PointF,Humidity,Sea Level PressureIn,VisibilityMPH,Wind Direction,Wind SpeedMPH,Gust SpeedMPH,PrecipitationIn,Events,Conditions,WindDirDegrees,DateUTC
12:53 AM,17.1,7.0,65,29.37,4.0,North,24.2,41.4,0.00,Snow,Light Snow,10,2012-12-19 09:53:00
1:01 AM,15.8,6.8,68,29.37,4.0,North,29.9,42.6,0.00,Snow,Light Snow,10,2012-12-19 10:01:00
1:53 AM,16.0,7.0,68,29.39,4.0,NNE,23.0,38.0,0.00,Snow,Light Snow,20,2012-12-19 10:53:00
2:04 AM,17.6,8.6,68,29.38,3.0,North,23.0,39.1,0.00,Snow,Light Snow,10,2012-12-19 11:04:00
2:12 AM,17.6,8.6,68,29.38,2.5,North,27.6,44.9,0.00,Snow,Light Snow,10,2012-12-19 11:12:00
3:24 AM,19.4,12.2,74,29.40,2.0,North,25.3,41.4,0.00,Snow,Light Snow,360,2012-12-19 12:24:00
3:51 AM,19.4,12.2,74,29.42,3.0,North,28.8,40.3,0.00,Snow,Light Snow,350,2012-12-19 12:51:00
3:53 AM,19.9,12.0,71,29.42,3.0,North,33.4,41.4,0.00,Snow,Light Snow,350,2012-12-19 12:53:00
4:00 AM,19.4,10.4,68,29.42,2.0,North,28.8,41.4,0.00,Snow,Light Snow,360,2012-12-19 13:00:00
4:16 AM,19.4,10.4,68,29.43,3.0,North,23.0,39.1,0.00,Snow,Light Snow,360,2012-12-19 13:16:00
4:53 AM,19.9,9.0,62,29.44,8.0,North,31.1,40.3,0.00,,Overcast,360,2012-12-19 13:53:00
5:53 AM,19.0,7.0,59,29.46,10.0,North,26.5,44.9,N/A,,Overcast,10,2012-12-19 14:53:00
6:53 AM,21.0,5.0,50,29.48,10.0,North,31.1,39.1,N/A,,Partly Cloudy,360,2012-12-19 15:53:00
7:53 AM,21.0,3.9,48,29.49,10.0,NNE,25.3,38.0,N/A,,Clear,20,2012-12-19 16:53:00
8:53 AM,21.0,3.0,46,29.52,10.0,North,20.7,38.0,N/A,,Clear,360,2012-12-19 17:53:00
9:53 AM,21.0,3.0,46,29.54,10.0,North,21.9,34.5,N/A,,Clear,350,2012-12-19 18:53:00
10:53 AM,19.9,3.0,48,29.57,10.0,North,25.3,36.8,N/A,,Clear,10,2012-12-19 19:53:00
11:53 AM,21.0,3.0,46,29.58,10.0,North,21.9,29.9,N/A,,Clear,360,2012-12-19 20:53:00
12:53 PM,21.9,1.9,42,29.61,10.0,North,23.0,33.4,N/A,,Clear,360,2012-12-19 21:53:00
1:53 PM,21.9,-0.0,38,29.62,10.0,North,17.3,33.4,N/A,,Clear,360,2012-12-19 22:53:00
2:53 PM,21.0,-0.9,38,29.64,10.0,NNW,19.6,31.1,N/A,,Clear,340,2012-12-19 23:53:00
3:53 PM,21.0,-0.9,38,29.64,10.0,North,23.0,38.0,N/A,,Clear,350,2012-12-20 00:53:00
4:53 PM,21.0,-0.9,38,29.65,10.0,NNW,24.2,40.3,N/A,,Clear,340,2012-12-20 01:53:00
5:53 PM,19.9,-0.0,42,29.67,10.0,NNW,23.0,43.7,N/A,,Clear,340,2012-12-20 02:53:00
6:53 PM,19.9,-0.0,42,29.69,10.0,North,17.3,35.7,N/A,,Clear,360,2012-12-20 03:53:00
7:53 PM,19.9,-0.0,42,29.70,10.0,North,24.2,33.4,N/A,,Clear,350,2012-12-20 04:53:00
8:53 PM,19.9,-0.0,42,29.72,10.0,North,17.3,29.9,N/A,,Clear,350,2012-12-20 05:53:00
9:53 PM,19.9,-0.0,42,29.74,10.0,NNW,19.6,31.1,N/A,,Clear,340,2012-12-20 06:53:00
10:53 PM,19.9,-0.0,42,29.77,10.0,North,19.6,32.2,N/A,,Clear,350,2012-12-20 07:53:00
11:53 PM,19.9,-0.0,42,29.77,10.0,North,18.4,32.2,N/A,,Clear,10,2012-12-20 08:53:00